HJ3GNC-17 Weather Reports


time (UTC)temp
C
wind
direction
speed
KPH
gust
KPH
rain 1hr
cm
rain 24hr
cm
rain mn
cm
humidity
%
barometer
mb
20260504224655 12 108 0.0 0.0 0.00 0.00 0.00 73 1015.0
20260504223114 12 70 0.0 0.0 0.00 0.00 0.00 73 1015.0
20260504221533 13 88 0.0 0.0 0.00 0.00 0.00 73 1014.0
20260504215948 13 60 0.0 0.0 0.00 0.00 0.00 73 1014.0
20260504214405 13 60 0.0 0.0 0.00 0.00 0.00 72 1014.0
20260504212818 13 60 0.0 0.0 0.00 0.00 0.00 71 1014.0
20260504211235 13 60 0.0 0.0 0.00 0.00 0.00 70 1014.0
20260504205652 13 57 0.0 0.0 0.00 0.00 0.00 68 1014.0
20260504204057 13 57 0.0 0.0 0.00 0.00 0.00 68 1014.0
20260504202511 13 301 0.0 0.0 0.00 0.00 0.00 68 1014.0
20260504200857 13 301 0.0 0.0 0.00 0.00 0.00 68 1014.0
20260504195314 13 301 0.0 0.0 0.00 0.00 0.00 68 1014.0
20260504193731 14 120 0.0 0.0 0.00 0.00 0.00 68 1014.0
20260504192150 15 0 0.0 0.0 0.00 0.00 0.00 68 1014.0
20260504190601 15 0 0.0 0.0 0.00 0.00 0.00 67 1014.0
20260504185020 15 150 0.0 0.0 0.00 0.00 0.00 66 1014.0
20260504183439 15 150 0.0 0.0 0.00 0.00 0.00 67 1014.0
20260504181854 15 150 0.0 0.0 0.00 0.00 0.00 67 1015.0
20260504180312 15 120 0.0 0.0 0.00 0.00 0.00 68 1015.0
20260504174730 15 120 0.0 0.0 0.00 0.00 0.00 70 1015.0
20260504173147 15 120 0.0 0.0 0.00 0.00 0.00 73 1015.0
20260504171601 15 120 0.0 0.0 0.00 0.00 0.00 76 1016.0
20260504100504 9 0 0.0 0.0 0.00 0.00 0.00 99 1018.0
20260504081345 9 20 0.0 0.0 0.00 0.00 0.00 99 1018.0
20260504050210 10 280 0.0 0.0 0.00 0.00 0.00 99 1020.0
20260504044624 10 125 0.0 0.0 0.00 0.00 0.00 98 1020.0
20260504043040 10 125 0.0 0.0 0.00 0.00 0.00 98 1020.0
20260504041455 10 122 0.0 0.0 0.00 0.00 0.00 98 1020.0
20260504035911 10 340 0.0 0.0 0.00 0.00 0.00 98 1020.0
20260504034316 10 340 0.0 0.0 0.00 0.00 0.00 98 1020.0
20260504032727 10 340 0.0 0.0 0.00 0.00 0.00 98 1020.0
20260504031140 10 340 0.0 0.0 0.00 0.00 0.00 98 1020.0
20260504025555 10 0 0.0 0.0 0.00 0.00 0.00 98 1020.0
20260504023917 10 0 0.0 0.0 0.00 0.00 0.00 98 1020.0
20260504022332 10 0 0.0 0.0 0.00 0.00 0.00 98 1019.0
20260504020726 10 0 0.0 0.0 0.00 0.00 0.00 97 1019.0
20260504015137 10 0 0.0 0.0 0.00 0.00 0.00 96 1019.0
20260504013541 11 0 0.0 0.0 0.00 0.00 0.00 94 1019.0
20260504010255 11 250 0.0 0.0 0.00 0.00 0.00 92 1018.0
20260504004657 11 250 0.0 0.0 0.00 0.00 0.00 90 1018.0
20260504001145 11 250 0.0 0.0 0.00 0.00 0.00 88 1017.0
20260503235536 11 123 0.0 0.0 0.00 0.00 0.00 83 1017.0
20260503233913 11 270 0.0 0.0 0.00 0.00 0.00 83 1017.0
20260503232324 12 270 0.0 0.0 0.00 0.00 0.00 83 1016.0
20260503230734 12 270 0.0 0.0 0.00 0.00 0.00 80 1016.0
20260503225148 12 118 0.0 0.0 0.00 0.00 0.00 77 1016.0